SL-14 DEB, 45299

Orbit data source: Space-Track

SL-14 DEB, 45299 is space debris in LEO originally from a launch on Thu, 15 Aug 1991 UTC launched from the Plesetsk Missile And Space Complex (PKMTR). Debris objects in space refer to the collection of defunct objects orbiting the Earth. Examples of debris include non-operational satellites, rocket bodies, and fragments generated from explosions, collisions, or faulty payload assembly.

Loading next visibility...
Identifier
45299, 1991-056AM
Orbit
LEO
Last TLE update
2 days ago
Origin
Manufacturer
Unknown
Mission
Spacecraft
Bus & Motor
Unknown
Mass
Unknown
Launch date (UTC)
1991-08-15 (34 years ago)
Launch vehicle
Unknown
Launch site
Plesetsk Missile And Space Complex (PKMTR)
Object type
Payload
Rocket body
Debris
Shape & HBR
Unknown
Radar Cross Section
Medium (>0.1 m² and <1 m²)

Expand to show TLE details & history

TLE from 2 days ago
0 SL-14 DEB
1 45299U 91056AM  25118.82599424  .00002473  00000-0  66830-2 0  9991
2 45299  82.6326 104.5434 0106667 342.9708  16.7842 13.12094204248422
Epoch: 2025-04-28T19:49Z
Definitive object data (Epoch: 2025-04-28T19:49:25.902Z)
Latitude
0.00002°
Longitude
-49.84897°
Altitude
1,140.387 km
Speed
7.32 km/s
True Right ascension
06h 58m 10s
True Declination
0° 00' 00"
Sunlit
Object was in daylight at TLE epoch
Visualization TLE readout
Latitude
-18.03608°
Longitude
-53.35705°
Altitude
1,141.012 km
Speed
7.32 km/s
Apparent Right ascension
06h 19m 40s
Apparent Declination
-28° 07' 15"
Sunlit
Object is in daylight
Visualization observer readout
Local Sidereal Time
17:43:52
Azimuth
325.22° NNW
Elevation
-76.085°
Doppler factor
1
Orbital elements
Apogee altitude
1,293.282 km
Perigee altitude
1,131.352 km
Semi-major axis
7,590.454 km
Eccentricity
0.0106667
Inclination
82.6326°
RAAN
104.5434°
Arg. of periapsis
342.9708°
True anomaly
17.14172°
Mean anomaly
16.7842°
Eccentric anomaly
16.9625°
Mean motion
3.28202 °/min
BSTAR
0.006683
Orbital period
109.69 mins
Loading maneuver chart data...
Loading SW <> Apogee altitude chart data...
Loading historical data...
Loading historical data...
Loading historical data...
Loading historical data...
Loading historical data...
Loading historical data...
Loading historical data...

SL-14 DEB Visibility forecast

Observer location: undefined°, undefined°

Span
Click to sort rows by Start time (UTC) header in descending order
Start Az.
Max El. time (UTC)
Max El. Az.
Max El.
End time (UTC)
End Az.
14 mins2025-04-30 10:50:55.165Z351.542° N2025-04-30 10:57:55.165Z266.215° W44.945°2025-04-30 11:04:55.165Z176.717° S
6 mins2025-04-30 12:44:55.165Z302.556° NW2025-04-30 12:46:55.165Z286.061° WNW14.33°2025-04-30 12:50:55.165Z253.834° W
12 mins2025-04-30 23:10:55.165Z165.993° S2025-04-30 23:15:55.165Z92.288° ESE41.297°2025-04-30 23:22:55.165Z14.634° NNE
9 mins2025-05-01 01:02:55.165Z249.464° W2025-05-01 01:06:55.165Z289.677° WNW21.616°2025-05-01 01:11:55.165Z337.786° N
7 mins2025-05-01 08:50:55.165Z40.379° NE2025-05-01 08:53:55.165Z66.301° ENE15.636°2025-05-01 08:57:55.165Z98.37° ESE
|